K3TOW Weather Reports


time (UTC)temp
F
wind
direction
speed
knots
gust
knots
rain 1hr
in
rain 24hr
in
rain mn
in
humidity
%
barometer
mb
20260506034003 56 0 0.0 0.0 0.00 0.00 0.00 89 1006.2
20260506033214 56 0 0.0 0.0 0.00 0.00 0.00 89 1006.2
20260506032003 56 0 0.0 0.0 0.00 0.00 0.00 88 1006.2
20260506031003 57 0 0.0 0.0 0.00 0.00 0.00 87 1006.2
20260506030003 57 0 0.0 0.0 0.00 0.00 0.00 86 1006.1
20260506025003 58 0 0.0 0.0 0.00 0.00 0.00 85 1006.1
20260506024003 59 0 0.0 0.0 0.00 0.00 0.00 84 1006.2
20260506023003 59 0 0.0 0.0 0.00 0.00 0.00 83 1006.2
20260506022003 60 0 0.0 0.0 0.00 0.00 0.00 82 1006.2
20260506021213 60 0 0.0 0.0 0.00 0.00 0.00 82 1006.1
20260506020003 61 0 0.0 0.0 0.00 0.00 0.00 80 1006.2
20260506015213 62 0 0.0 0.0 0.00 0.00 0.00 80 1006.2
20260506014003 63 0 0.0 0.0 0.00 0.00 0.00 79 1006.1
20260506013003 64 0 0.0 0.0 0.00 0.00 0.00 78 1006.0
20260506012003 64 0 0.0 0.0 0.00 0.00 0.00 76 1005.9
20260506011003 65 0 0.0 0.0 0.00 0.00 0.00 75 1005.7
20260506010003 66 0 0.0 0.0 0.00 0.00 0.00 74 1005.6
20260506005213 66 0 0.0 0.0 0.00 0.00 0.00 72 1005.4
20260506004003 67 0 0.0 0.0 0.00 0.00 0.00 70 1005.3
20260506003003 68 0 0.0 0.0 0.00 0.00 0.00 67 1005.2
20260506002213 68 0 0.0 0.0 0.00 0.00 0.00 67 1005.1
20260506001003 69 0 0.0 0.0 0.00 0.00 0.00 62 1005.1
20260506000003 70 0 0.0 0.0 0.00 0.00 0.00 66 1005.0
20260505235003 71 0 0.0 0.0 0.00 0.00 0.00 64 1004.8
20260505234003 72 0 0.0 0.0 0.00 0.00 0.00 63 1004.7
20260505233003 72 0 0.0 0.0 0.00 0.00 0.00 58 1004.5
20260505232212 73 59 0.0 0.9 0.00 0.00 0.00 58 1004.5
20260505231003 74 59 0.9 1.7 0.00 0.00 0.00 52 1004.5
20260505230003 74 59 0.9 1.7 0.00 0.00 0.00 52 1004.4
20260505225003 75 59 0.0 1.7 0.00 0.00 0.00 49 1004.4
20260505224214 75 59 0.9 2.6 0.00 0.00 0.00 49 1004.5
20260505223003 76 58 0.0 5.2 0.00 0.00 0.00 48 1004.4
20260505222003 76 113 0.0 1.7 0.00 0.00 0.00 48 1004.3
20260505221003 76 253 0.9 4.3 0.00 0.00 0.00 47 1004.2
20260505220003 76 85 0.9 4.3 0.00 0.00 0.00 46 1004.0
20260505215003 76 50 0.9 5.2 0.00 0.00 0.00 47 1004.0
20260505214003 76 23 0.9 2.6 0.00 0.00 0.00 47 1003.8
20260505213003 76 357 0.0 3.5 0.00 0.00 0.00 44 1003.9
20260505212003 77 43 0.9 7.0 0.00 0.00 0.00 46 1004.0
20260505211003 78 63 0.9 4.3 0.00 0.00 0.00 45 1004.0
20260505210003 79 74 1.7 7.8 0.00 0.00 0.00 40 1004.0
20260505205003 80 45 1.7 9.6 0.00 0.00 0.00 40 1003.8
20260505204003 80 59 1.7 7.0 0.00 0.00 0.00 39 1003.8
20260505203213 80 42 1.7 7.0 0.00 0.00 0.00 38 1003.8
20260505202003 81 80 0.9 4.3 0.00 0.00 0.00 38 1003.8
20260505201003 82 66 1.7 9.6 0.00 0.00 0.00 37 1003.5
20260505200003 83 118 1.7 8.7 0.00 0.00 0.00 35 1003.7
20260505195003 84 46 1.7 7.0 0.00 0.00 0.00 37 1003.7
20260505194003 85 357 3.5 10.4 0.00 0.00 0.00 35 1003.5
20260505193003 84 42 1.7 7.0 0.00 0.00 0.00 36 1003.7
20260505192003 84 28 3.5 15.6 0.00 0.00 0.00 38 1003.7
20260505191003 83 55 2.6 13.9 0.00 0.00 0.00 39 1004.0
20260505190003 83 6 3.5 7.8 0.00 0.00 0.00 38 1004.4
20260505185003 83 17 2.6 9.6 0.00 0.00 0.00 39 1004.6
20260505184003 84 350 3.5 9.6 0.00 0.00 0.00 38 1004.7
20260505183003 84 6 2.6 12.2 0.00 0.00 0.00 38 1004.7
20260505182003 84 40 1.7 8.7 0.00 0.00 0.00 38 1004.8
20260505181003 83 342 2.6 10.4 0.00 0.00 0.00 40 1005.0
20260505180004 84 15 2.6 7.8 0.00 0.00 0.00 39 1005.2
20260505175214 83 356 2.6 8.7 0.00 0.00 0.00 39 1005.3
20260505174003 82 10 2.6 8.7 0.00 0.00 0.00 42 1005.2
20260505173212 82 346 3.5 11.3 0.00 0.00 0.00 43 1005.5
20260505172003 81 17 2.6 10.4 0.00 0.00 0.00 44 1005.4
20260505171003 81 13 2.6 7.8 0.00 0.00 0.00 45 1005.5
20260505170003 81 351 3.5 12.2 0.00 0.00 0.00 44 1005.7
20260505165003 81 25 3.5 13.0 0.00 0.00 0.00 43 1005.7
20260505164003 80 37 3.5 9.6 0.00 0.00 0.00 45 1006.1
20260505163003 80 349 2.6 11.3 0.00 0.00 0.00 44 1006.2
20260505162003 80 2 4.3 12.2 0.00 0.00 0.00 44 1006.2
20260505161003 80 7 3.5 9.6 0.00 0.00 0.00 45 1006.2
20260505153003 79 37 2.6 7.0 0.00 0.00 0.00 47 1006.5
20260505152003 78 348 2.6 7.8 0.00 0.00 0.00 47 1006.5
20260505151003 78 3 2.6 12.2 0.00 0.00 0.00 48 1006.6
20260505125003 64 336 0.0 1.7 0.00 0.00 0.00 71 1007.2
20260505124003 62 0 0.0 0.0 0.00 0.00 0.00 78 1007.2
20260505123003 60 0 0.0 0.0 0.00 0.00 0.00 83 1007.2
20260505122003 59 0 0.0 0.0 0.00 0.00 0.00 85 1007.3
20260505121003 57 0 0.0 0.0 0.00 0.00 0.00 89 1007.3
20260505120214 56 0 0.0 0.0 0.00 0.00 0.00 91 1007.3
20260505115003 54 0 0.0 0.0 0.00 0.00 0.00 92 1007.3
20260505114003 52 0 0.0 0.0 0.00 0.00 0.00 93 1007.1
20260505113003 51 0 0.0 0.0 0.00 0.00 0.00 93 1007.1
20260505112214 50 0 0.0 0.0 0.00 0.00 0.00 93 1007.1
20260505111003 49 0 0.0 0.0 0.00 0.00 0.00 93 1006.9
20260505102003 49 0 0.0 0.0 0.00 0.00 0.00 91 1006.6
20260505101003 49 0 0.0 0.0 0.00 0.00 0.00 91 1006.6
20260505100003 49 0 0.0 0.0 0.00 0.00 0.00 91 1006.5
20260505095003 50 0 0.0 0.0 0.00 0.00 0.00 90 1006.5
20260505094003 50 0 0.0 0.0 0.00 0.00 0.00 90 1006.4
20260505093004 50 0 0.0 0.0 0.00 0.00 0.00 90 1006.3
20260505092003 50 0 0.0 0.0 0.00 0.00 0.00 89 1006.4
20260505091003 51 0 0.0 0.0 0.00 0.00 0.00 89 1006.4
20260505090003 51 0 0.0 0.0 0.00 0.00 0.00 88 1006.4
20260505085003 52 0 0.0 0.0 0.00 0.00 0.00 88 1006.4
20260505084213 52 0 0.0 0.0 0.00 0.00 0.00 88 1006.3
20260505083003 52 0 0.0 0.0 0.00 0.00 0.00 87 1006.3
20260505082003 52 0 0.0 0.0 0.00 0.00 0.00 87 1006.3
20260505081213 52 0 0.0 0.0 0.00 0.00 0.00 87 1006.4
20260505080003 53 0 0.0 0.0 0.00 0.00 0.00 86 1006.3
20260505075003 53 0 0.0 0.0 0.00 0.00 0.00 86 1006.1
20260505074003 53 0 0.0 0.0 0.00 0.00 0.00 85 1006.1
20260505073003 54 0 0.0 0.0 0.00 0.00 0.00 85 1006.1
20260505072003 54 0 0.0 0.0 0.00 0.00 0.00 84 1006.1
20260505071003 54 0 0.0 0.0 0.00 0.00 0.00 83 1006.1
20260505070214 54 0 0.0 0.0 0.00 0.00 0.00 82 1006.1
20260505065003 55 0 0.0 0.0 0.00 0.00 0.00 81 1006.2
20260505064214 55 0 0.0 0.0 0.00 0.00 0.00 81 1006.3
20260505063214 56 0 0.0 0.0 0.00 0.00 0.00 80 1006.3
20260505062003 56 0 0.0 0.0 0.00 0.00 0.00 80 1006.4
20260505061003 56 0 0.0 0.0 0.00 0.00 0.00 78 1006.5
20260505060003 56 0 0.0 0.0 0.00 0.00 0.00 77 1006.5
20260505055003 56 0 0.0 0.0 0.00 0.00 0.00 77 1006.6
20260505054003 56 0 0.0 0.0 0.00 0.00 0.00 77 1006.6
20260505053003 56 0 0.0 0.0 0.00 0.00 0.00 76 1006.5
20260505052003 56 0 0.0 0.0 0.00 0.00 0.00 75 1006.5
20260505051003 56 0 0.0 0.0 0.00 0.00 0.00 74 1006.6
20260505041003 58 0 0.0 0.0 0.00 0.00 0.00 70 1006.2
20260505040004 58 0 0.0 0.0 0.00 0.00 0.00 69 1006.0
20260505035003 59 0 0.0 0.0 0.00 0.00 0.00 67 1006.0